Location: Newark
(51.2625°N, 13.3939°E)
Time: 10:38:30
(UTC+00:00)

Transit 2A Rocket - Visible Passes

Search period start: 17 January 2021 00:00
Search period end: 27 January 2021 00:00
Orbit: 592 x 911 km, 66.7° (Epoch: 17 January)

Date Brightness Start Highest point End Pass type
(mag) Time Alt. Az. Time Alt. Az. Time Alt. Az.
17 Jan 6.8 16:00:42 10° WNW 16:04:05 17° NNW 16:07:17 10° NNE visible
17 Jan 6.9 17:46:30 10° NNW 17:48:35 13° N 17:49:04 12° N visible
18 Jan 6.9 17:03:19 10° NNW 17:05:24 13° N 17:07:26 10° NNE visible
18 Jan 7.2 18:46:43 10° NNW 18:47:31 13° NNW 18:47:31 13° NNW visible
19 Jan 6.9 16:19:50 10° NW 16:22:15 13° N 16:24:35 10° NNE visible
19 Jan 6.8 18:04:09 10° NNW 18:06:05 14° N 18:06:05 14° N visible
20 Jan 6.7 17:21:28 10° NNW 17:23:40 13° N 17:24:40 12° NNE visible
20 Jan 7.2 19:03:54 10° NNW 19:04:34 13° NNW 19:04:34 13° NNW visible
21 Jan 6.8 16:38:31 10° NNW 16:40:30 12° N 16:42:26 10° NNE visible
21 Jan 6.7 18:21:25 10° NNW 18:23:11 17° N 18:23:11 17° N visible
22 Jan 6.5 17:38:54 10° NNW 17:41:48 16° NNE 17:41:48 16° NNE visible
22 Jan 7.3 19:21:04 10° NNW 19:21:42 14° NNW 19:21:42 14° NNW visible
23 Jan 6.6 16:56:19 10° NNW 16:58:44 14° NNE 17:00:28 12° NE visible
23 Jan 6.5 18:38:34 10° NNW 18:40:22 20° NNW 18:40:22 20° NNW visible
24 Jan 6.7 16:13:34 10° NNW 16:15:36 12° N 16:17:34 10° NNE visible
24 Jan 6.0 17:56:05 10° NNW 17:59:04 23° NNE 17:59:04 23° NNE visible
24 Jan 7.4 19:38:24 10° NW 19:38:58 13° NW 19:38:58 13° NW visible
25 Jan 6.1 17:13:36 10° NNW 17:16:51 19° NNE 17:17:48 18° NE visible
25 Jan 6.4 18:55:47 10° NW 18:57:43 24° NNW 18:57:43 24° NNW visible
26 Jan 6.5 16:31:05 10° NNW 16:33:47 15° NNE 16:36:25 10° NE visible
26 Jan 5.4 18:13:14 10° NNW 18:16:32 36° N 18:16:32 36° N visible
26 Jan 7.6 19:56:04 10° NW 19:56:27 12° NW 19:56:27 12° NW visible
